This is the latest recevied weather packets stored in our database for station/object N3TTT-13. If no packets are shown the sender has not sent any weather packets the latest 1 day(s).
| Time | Temp. | Humidity | Pressure | Rain* | Wind** | Luminosity | Snow |
|---|---|---|---|---|---|---|---|
| 1778053110 | 18.33° C | 79% | 1011.4 hPa | 0 mm | 1.34 m/s, 274° | 0 W/m² | - |
| 1778052808 | 18.89° C | 79% | 1011.4 hPa | 0 mm | 1.34 m/s, 182° | 0 W/m² | - |
| 1778052504 | 18.89° C | 79% | 1011.3 hPa | 0 mm | 2.68 m/s, 207° | 0 W/m² | - |
| 1778052202 | 18.89° C | 79% | 1011.3 hPa | 0 mm | 1.34 m/s, 255° | 0 W/m² | - |
| 1778051900 | 18.89° C | 79% | 1011.2 hPa | 0 mm | 0.89 m/s, 274° | 0 W/m² | - |
| 1778051597 | 18.89° C | 79% | 1011.2 hPa | 0 mm | 1.34 m/s, 245° | 0 W/m² | - |
| 1778051294 | 18.89° C | 78% | 1011.2 hPa | 0 mm | 1.79 m/s, 257° | 0 W/m² | - |
| 1778050991 | 18.89° C | 79% | 1011.2 hPa | 0 mm | 1.34 m/s, 158° | 0 W/m² | - |
| 1778050688 | 18.89° C | 78% | 1011.1 hPa | 0 mm | 2.68 m/s, 226° | 0 W/m² | - |
| 1778050386 | 18.89° C | 79% | 1011.3 hPa | 0 mm | 0 m/s | 0 W/m² | - |
| 1778050082 | 18.89° C | 79% | 1011.3 hPa | 0 mm | 0.89 m/s, 258° | 0 W/m² | - |
| 1778049777 | 18.89° C | 78% | 1011.5 hPa | 0 mm | 0.89 m/s, 244° | 0 W/m² | - |
| 1778049475 | 19.44° C | 78% | 1011.4 hPa | 0 mm | 0.45 m/s, 347° | 0 W/m² | - |
| 1778049173 | 18.89° C | 78% | 1011.2 hPa | 0 mm | 1.79 m/s, 71° | 0 W/m² | - |
| 1778048871 | 18.89° C | 79% | 1011.4 hPa | 0 mm | 0.45 m/s, 240° | 0 W/m² | - |
| 1778048568 | 19.44° C | 78% | 1011.6 hPa | 0 mm | 0.45 m/s, 173° | 0 W/m² | - |
| 1778048264 | 19.44° C | 78% | 1011.6 hPa | 0 mm | 0.89 m/s, 214° | 0 W/m² | - |
| 1778047961 | 19.44° C | 78% | 1011.7 hPa | 0 mm | 0.89 m/s, 264° | 0 W/m² | - |
| 1778047660 | 19.44° C | 77% | 1011.4 hPa | 0 mm | 1.34 m/s, 201° | 0 W/m² | - |
| 1778047357 | 19.44° C | 78% | 1011.6 hPa | 0 mm | 0.45 m/s, 227° | 0 W/m² | - |
| 1778047054 | 19.44° C | 78% | 1011.5 hPa | 0 mm | 0.45 m/s, 247° | 0 W/m² | - |
| 1778046750 | 19.44° C | 77% | 1011.5 hPa | 0 mm | 1.34 m/s, 213° | 0 W/m² | - |
| 1778046447 | 19.44° C | 77% | 1011.5 hPa | 0 mm | 0 m/s | 0 W/m² | - |
| 1778046144 | 19.44° C | 77% | 1011.5 hPa | 0 mm | 0.89 m/s, 259° | 0 W/m² | - |
| 1778045841 | 20° C | 77% | 1011.6 hPa | 0 mm | 0.89 m/s, 217° | 0 W/m² | - |
* Rain latest hour (hover to see other rain measurements)
** Current wind speed in m/s (hover to see current wind gust speed)